Cloud_Cover
100 100 97 26 7 2 4 97 52 95 53 74 98 100 100 100 45 16 42 50 5 3 0 0 4 0 0 1 1 0 8 100 100 100 90 0 5 59 100 100 99 76 4 0 0 0 0 0 0
100 100 100 76 8 4 3 7 5 28 28 98 98 100 91 59 26 41 40 46 4 3 5 1 0 1 0 0 0 49 100 100 100 100 4 3 27 97 100 100 82 7 0 7 3 0 0 0 0
100 100 100 92 33 74 5 5 5 25 28 99 77 14 98 23 14 84 70 5 5 8 5 5 5 2 5 3 20 100 100 100 52 4 3 4 59 100 100 100 100 100 5 1 6 71 0 0 0
100 100 100 100 100 19 5 20 5 19 40 22 52 49 78 53 94 15 5 12 99 100 37 5 17 66 38 100 100 100 100 64 91 91 100 100 2 10 79 100 100 72 5 1 0 0 0 0 0
100 98 100 100 100 5 2 44 5 35 41 63 5 8 99 100 58 5 5 38 97 53 5 5 5 5 75 100 100 100 100 100 89 100 100 36 0 1 4 53 8 1 0 1 0 0 0 0 0
82 25 75 100 100 48 0 5 5 100 100 44 5 89 100 92 5 5 61 94 100 8 5 5 1 5 96 100 100 100 100 100 25 55 29 2 0 0 0 0 0 0 0 0 0 0 0 0 0
47 5 94 100 100 99 1 1 5 9 71 98 58 5 5 8 5 42 87 99 13 36 5 0 31 100 100 100 100 100 12 3 5 14 4 26 26 26 0 0 2 0 1 0 0 0 0 0 0
46 16 43 100 67 72 12 6 20 100 100 54 5 5 26 51 5 6 43 5 5 2 3 5 77 94 100 100 71 5 0 0 0 5 5 5 5 18 100 100 100 92 98 97 90 1 0 0 0
30 5 72 95 10 15 98 58 32 65 73 5 5 21 32 60 95 100 37 5 4 5 7 98 35 100 90 5 0 4 5 9 0 0 0 0 0 0 0 0 16 66 1 10 2 0 0 0 0
37 5 57 81 27 5 75 71 56 66 6 5 5 58 97 70 80 57 6 5 5 19 56 31 69 11 75 3 0 0 0 0 0 0 0 0 0 0 0 0 4 2 2 1 1 1 0 0 12
31 9 68 75 63 22 53 100 100 7 7 41 96 52 59 82 70 23 5 8 5 4 71 7 88 100 13 0 0 0 0 0 0 0 0 0 0 0 0 0 0 5 5 5 5 0 3 0 4
1 39 30 10 90 42 19 26 100 99 24 99 18 76 100 89 5 5 8 13 5 7 49 70 100 2 0 0 0 0 0 0 0 0 0 0 19 6 5 20 5 14 6 5 0 3 1 0 4
3 80 6 92 100 100 41 5 5 89 92 88 5 79 86 42 57 100 98 5 5 92 23 85 2 0 0 0 0 0 0 3 0 0 0 10 18 14 5 12 6 33 1 2 0 12 17 5 6
99 99 100 100 100 100 71 5 88 100 100 29 15 72 100 100 100 69 34 5 5 3 10 3 0 0 0 0 0 0 0 0 0 1 5 54 18 19 23 35 64 13 1 0 7 18 23 20 7
100 100 100 100 100 48 76 64 100 78 7 96 5 5 24 100 85 81 5 5 5 3 1 0 5 0 0 0 0 0 0 0 0 2 5 11 7 6 24 16 27 6 6 5 6 11 19 17 5
100 100 100 100 100 92 70 100 100 5 5 8 24 5 59 100 99 26 5 5 0 5 5 0 5 3 0 0 0 0 0 0 0 8 33 5 5 6 5 12 7 9 22 22 14 24 26 20 9
100 100 92 100 100 29 98 100 5 4 5 98 6 30 100 83 90 5 5 4 0 8 2 0 4 0 0 0 0 0 0 0 52 100 19 37 19 58 9 98 69 72 33 29 12 18 3 12 9
97 37 41 95 95 20 20 39 5 5 5 88 96 100 59 72 32 6 2 4 66 3 2 0 0 0 0 4 0 0 0 6 97 100 97 85 100 40 97 100 83 39 38 26 22 6 1 23 96
100 56 4 100 84 3 5 28 6 53 100 100 100 100 100 99 98 45 4 96 5 94 4 0 0 0 5 4 0 0 5 22 61 100 10 32 68 90 81 98 96 86 25 20 7 5 2 87 100
70 5 39 100 95 5 9 2 67 100 100 100 100 100 100 75 4 1 5 41 100 67 1 0 5 5 5 0 0 0 5 17 100 82 13 51 80 18 100 100 95 99 14 20 7 5 68 100 89
67 70 100 100 45 5 0 20 6 100 100 100 100 100 82 5 4 6 32 100 25 4 0 4 5 5 0 0 0 1 5 56 100 84 99 13 13 100 80 99 90 24 24 36 7 29 88 100 98
8 100 100 91 24 3 3 23 98 100 100 100 100 6 76 36 58 0 24 13 1 0 0 0 0 0 0 0 0 3 5 25 98 88 7 5 76 100 86 50 5 70 55 25 9 98 90 79 36
100 100 98 98 3 4 70 100 100 100 100 100 20 20 56 72 0 0 0 0 0 0 0 0 0 0 0 0 0 4 0 75 100 47 5 5 88 100 67 9 5 18 9 5 93 38 26 50 7
100 24 5 2 3 17 18 36 79 99 90 100 5 79 49 38 0 0 0 0 0 0 0 0 0 0 0 0 0 0 79 100 16 5 8 29 89 78 98 30 22 46 63 7 100 5 60 5 48
5 43 27 68 93 90 94 13 9 5 47 100 46 19 20 3 4 1 0 0 0 0 0 0 0 0 0 0 4 1 100 97 5 5 30 100 98 84 100 5 22 45 5 9 100 77 5 9 100
100 100 88 84 100 100 17 21 3 67 100 91 39 42 5 5 5 0 0 0 0 0 0 0 0 0 0 0 0 56 100 39 13 98 41 61 72 55 16 5 67 6 5 5 80 37 54 100 100
100 100 100 99 65 3 0 100 100 100 100 19 5 5 16 5 5 0 0 0 0 0 0 0 0 0 0 0 4 94 100 5 49 20 73 99 83 55 56 7 10 5 5 5 5 5 100 100 100
11 9 88 4 3 44 100 100 100 100 75 4 11 5 5 5 1 0 0 0 0 0 0 0 0 0 0 0 63 100 100 5 38 98 51 51 23 65 38 31 5 5 7 7 19 48 100 100 100
88 15 3 29 37 96 100 100 88 100 45 62 18 5 68 4 0 0 0 0 0 0 0 0 0 0 0 0 84 100 95 5 22 5 72 5 18 77 7 20 12 32 65 69 99 100 100 100 100
6 24 69 98 100 90 5 80 100 100 96 77 5 5 4 0 0 0 0 0 0 0 0 0 0 0 0 0 89 100 7 5 6 52 20 61 24 8 12 42 99 57 63 100 100 100 100 100 100